RH
67 74 78 80 81 80 80 81 77 71 64 58 57 57 58 57 55 55 57 59 61 59 57 56 55 55 56 56 56 56 56 56 58 57 57 59 60 61 61 60 58 58 58 58 57 59 59 58 58 56 58 64 65 64 64 64 65 67 71 71 67 65 67 69 69 66 65 65 64 63 64 66 68 69 71 72 71 70 69 69 69 69 66 60 54
65 70 75 77 78 80 81 83 81 76 69 63 60 60 60 58 55 56 58 60 61 61 60 59 58 57 56 56 57 57 57 57 57 57 58 61 63 64 64 63 62 59 59 58 58 60 62 60 60 58 58 62 65 64 63 64 67 69 73 75 71 66 66 67 67 67 66 66 66 65 63 63 64 66 68 70 70 71 72 72 71 68 65 63 60
63 65 69 71 73 75 78 81 83 79 73 69 66 63 62 60 58 59 60 59 61 62 61 61 61 62 60 58 58 58 58 59 59 59 60 62 64 63 62 63 62 61 60 60 61 63 64 64 63 61 60 63 66 65 62 64 66 67 72 75 71 65 64 65 66 68 69 69 68 67 66 66 65 65 66 68 69 70 71 72 72 69 66 66 66
61 60 63 67 69 72 74 76 79 80 77 74 72 69 65 62 60 62 62 61 61 62 62 62 62 64 63 62 62 61 58 58 61 63 65 65 65 63 63 63 63 61 61 62 64 66 66 66 65 65 64 64 65 65 63 62 62 65 72 73 66 64 66 69 69 70 70 68 68 69 69 69 69 67 65 66 67 67 68 70 71 69 66 67 66
60 60 61 65 69 72 74 72 70 74 78 79 77 74 70 66 64 63 64 64 63 63 64 63 64 66 66 64 64 63 61 60 62 65 68 70 70 68 68 68 67 65 64 64 66 69 71 70 69 69 68 67 66 67 67 65 62 66 71 68 64 65 67 67 68 68 67 67 69 71 70 69 68 68 67 66 66 65 66 68 69 68 66 66 65
61 62 64 67 70 74 76 73 69 70 73 76 76 76 73 71 69 68 66 66 65 63 63 64 69 72 69 67 67 66 63 62 63 65 68 70 71 71 69 68 68 69 67 65 63 67 72 74 74 72 69 66 65 65 68 67 64 65 67 65 65 67 66 65 67 67 66 68 70 71 70 68 66 68 68 66 66 67 68 69 69 69 68 67 66
61 63 65 68 73 76 76 75 74 73 71 71 74 76 74 73 73 72 70 68 66 64 61 62 70 74 70 68 71 72 70 68 65 65 66 67 68 69 67 66 67 67 66 65 64 66 68 70 72 72 71 69 66 64 66 66 65 65 66 67 70 69 66 65 67 66 65 67 69 71 70 68 65 66 67 65 65 66 68 70 71 71 71 71 69
60 63 65 68 75 80 80 77 76 76 73 73 77 78 77 76 75 75 74 73 70 68 65 64 66 69 68 67 70 74 76 74 70 66 65 66 67 67 67 68 67 66 66 66 67 69 69 69 69 70 72 75 73 70 70 68 66 66 65 68 72 70 64 63 64 63 63 64 66 68 68 66 64 65 66 66 66 65 67 69 71 72 72 72 71
54 59 61 66 73 80 82 81 80 79 77 76 77 77 76 77 76 75 75 75 74 73 72 69 66 66 69 69 70 75 78 77 75 71 68 69 69 66 65 67 66 65 67 67 66 68 70 71 72 71 72 75 75 73 74 72 68 66 65 68 71 67 61 60 62 62 62 62 63 64 65 65 64 63 63 64 64 65 67 70 71 71 71 71 71
51 55 59 63 68 72 75 78 79 77 76 75 73 71 70 72 76 76 75 76 76 76 77 75 70 71 75 75 74 76 79 78 75 69 67 69 69 65 64 65 66 65 65 66 67 69 71 73 75 77 76 76 75 73 74 75 71 68 67 69 69 65 61 61 63 63 61 62 65 66 67 68 67 64 64 65 64 65 69 72 73 73 71 69 69
57 59 64 67 67 68 70 73 74 74 74 74 70 68 66 68 74 76 76 76 76 77 76 73 71 72 76 78 78 79 82 81 73 66 66 68 66 63 63 64 64 65 65 65 65 68 71 71 72 75 76 77 76 74 74 77 76 70 67 66 65 63 62 63 64 63 63 64 67 68 67 67 68 67 67 66 65 67 71 73 73 72 68 65 63
65 65 68 68 68 70 70 72 73 73 74 73 69 68 67 69 73 73 72 75 79 79 75 71 68 70 75 81 83 82 81 80 73 68 70 70 65 63 63 63 63 64 64 65 65 68 71 70 69 70 71 74 76 74 73 76 75 71 67 65 64 63 63 62 62 62 63 64 67 67 65 66 69 71 71 68 66 68 70 71 69 65 62 61 60
67 68 68 66 67 69 70 71 73 74 74 70 67 67 67 67 70 69 69 75 80 79 74 71 69 69 73 80 84 82 80 78 72 69 72 72 68 65 64 62 63 63 64 65 67 69 71 71 70 69 70 74 75 73 73 74 71 69 69 67 66 67 65 63 62 62 62 62 63 63 65 68 70 71 70 67 65 65 64 62 59 56 56 58 59
62 67 69 67 66 68 70 71 72 73 72 69 66 66 66 67 69 68 68 75 79 77 73 70 68 70 72 75 77 77 77 76 72 68 69 70 69 69 67 65 64 65 65 66 68 70 71 71 71 71 71 73 73 73 75 74 70 70 72 70 70 70 68 64 62 62 63 62 61 60 62 65 65 65 65 60 56 54 54 53 53 53 53 54 54
57 63 70 72 70 69 70 70 70 72 71 69 66 65 65 67 68 67 70 76 78 77 75 72 70 72 74 73 73 73 71 71 68 66 67 68 68 69 69 68 68 67 67 67 68 71 72 71 73 73 71 71 71 71 71 71 70 72 73 73 73 72 69 65 63 65 67 67 64 61 60 58 54 52 51 46 41 44 48 51 52 49 49 47 46
58 61 70 76 73 71 72 71 71 73 72 70 68 64 64 66 65 65 70 77 78 77 78 79 80 80 77 74 73 71 68 66 65 65 67 69 69 70 71 71 71 71 71 71 70 71 72 74 76 75 71 71 71 68 68 70 72 74 75 76 77 75 71 67 66 67 70 69 65 61 57 52 45 39 37 34 34 38 42 43 41 38 36 35 34
60 63 70 76 72 70 72 71 70 71 69 68 68 66 65 66 64 62 65 71 74 75 77 81 83 83 80 79 78 75 72 68 66 66 67 68 70 74 76 74 74 75 76 75 73 71 73 76 77 74 71 73 71 68 69 72 73 75 76 77 77 76 74 71 69 69 69 67 61 54 48 43 37 33 31 30 31 32 32 32 31 29 29 28 29
58 63 73 78 71 66 69 70 68 66 64 64 66 66 66 67 64 59 60 67 71 73 76 79 81 81 83 85 82 78 76 73 70 69 69 69 71 76 78 79 81 82 81 77 75 74 75 77 76 74 72 72 71 69 70 72 74 75 77 78 78 78 75 70 65 63 59 55 49 45 41 37 33 31 30 29 29 28 26 26 28 29 29 28 28
57 63 73 79 71 64 67 69 67 64 61 59 62 63 65 65 63 59 60 65 70 72 74 76 78 78 81 84 83 79 78 76 73 73 75 77 80 81 83 84 85 84 82 78 76 76 76 76 76 75 73 72 72 72 72 73 75 77 77 78 77 74 66 58 51 47 45 43 40 37 35 33 32 30 28 26 25 24 24 24 26 28 29 29 30
58 64 72 77 71 65 66 69 66 63 60 58 59 60 63 65 64 62 62 63 68 72 72 70 70 72 77 82 82 81 80 78 77 78 80 83 87 87 86 84 83 81 81 80 78 78 78 77 76 76 76 76 76 75 75 75 78 78 75 71 67 61 52 45 39 36 37 37 36 33 32 32 31 28 25 23 24 26 27 27 27 27 29 31 32
57 64 71 74 70 65 67 68 65 62 59 57 56 57 60 63 63 62 62 61 66 73 71 64 65 74 82 85 84 83 85 83 81 82 82 81 81 81 80 79 80 81 82 83 83 82 82 82 81 79 79 79 78 78 77 76 75 72 65 59 55 50 45 41 35 31 31 34 34 32 32 30 28 26 25 27 29 30 30 29 28 29 31 34 34
55 63 72 75 72 68 68 68 66 64 61 57 55 56 58 62 63 62 61 61 66 75 75 67 67 75 83 87 87 85 86 87 85 84 85 82 79 78 78 80 82 84 85 87 88 86 85 85 83 81 81 81 80 78 74 68 64 60 56 53 51 48 43 37 33 31 32 34 32 31 30 28 27 28 29 30 32 31 30 30 31 32 33 34 35
54 62 72 77 76 72 70 68 67 65 62 57 56 56 57 61 63 61 60 62 67 76 78 71 66 70 77 83 86 87 87 88 88 88 89 89 87 86 86 87 88 86 86 87 87 86 87 87 85 83 81 78 73 66 61 56 52 49 47 47 47 45 38 33 32 33 33 32 31 30 29 27 27 29 30 30 31 31 30 31 32 32 32 32 33
52 58 67 75 77 74 71 70 68 67 64 61 58 56 57 60 62 60 60 61 64 72 77 71 64 64 68 73 78 81 85 88 89 89 91 92 91 90 89 89 88 86 86 88 89 88 88 86 81 76 70 63 58 54 50 48 45 42 39 39 39 36 31 28 30 33 32 32 31 29 28 28 28 30 31 31 31 30 31 31 30 28 28 29 30
51 55 62 71 75 72 69 69 67 67 66 62 57 56 58 61 61 60 60 59 60 67 75 72 65 62 62 65 68 71 79 86 88 89 89 89 89 89 88 87 86 85 84 85 83 80 76 72 66 60 56 52 49 47 44 41 37 34 32 30 29 28 26 28 31 32 31 29 28 28 29 30 30 30 30 31 31 31 31 30 28 28 28 30 31
50 54 61 69 73 72 69 68 67 67 68 64 57 55 59 63 62 59 59 59 60 66 72 69 64 60 57 59 60 60 64 73 79 80 81 83 85 85 83 80 79 78 76 74 69 64 59 57 54 52 50 47 42 39 35 32 28 27 26 26 25 25 26 28 30 31 30 28 28 31 32 31 31 31 31 32 32 32 31 31 32 33 32 32 32
48 52 59 65 70 70 68 69 68 69 68 65 57 54 59 64 64 59 58 59 61 64 67 68 64 58 53 53 54 52 52 57 62 64 67 70 72 73 70 66 64 64 63 60 57 55 52 49 48 44 39 35 31 29 28 26 25 25 26 26 25 26 28 29 29 29 30 30 32 34 33 32 32 32 32 32 33 34 34 35 36 36 34 34 34
48 51 57 64 68 68 68 70 70 69 68 65 59 55 58 64 67 63 59 61 60 60 66 69 65 59 53 49 49 50 50 52 54 56 58 59 61 61 60 58 56 55 53 51 50 47 44 40 36 32 29 27 26 26 28 28 27 28 28 27 27 30 32 31 30 30 32 35 36 36 36 35 34 34 35 36 37 38 39 39 38 36 35 35 34
51 51 56 64 68 67 68 71 70 69 69 65 60 57 58 63 67 65 63 63 62 61 64 66 64 61 56 48 44 45 49 51 52 53 53 53 53 53 53 53 52 50 47 46 44 41 37 33 30 27 27 28 27 28 31 30 29 30 30 30 32 35 34 32 31 33 36 38 40 40 40 39 39 39 40 40 40 40 40 39 38 37 37 36 35
54 54 57 63 65 64 66 68 67 67 69 69 66 63 61 63 65 65 65 67 66 65 65 63 60 59 56 49 43 41 43 45 48 50 50 49 47 45 44 45 46 44 41 41 40 37 34 32 32 30 31 32 31 32 34 34 34 35 35 36 38 39 38 36 36 39 40 41 43 45 44 43 43 43 41 41 41 42 41 40 39 39 39 38 37
56 55 58 62 61 60 60 63 63 63 67 71 72 69 66 65 66 66 67 68 67 67 66 62 57 54 52 47 42 39 38 39 41 43 45 45 44 41 39 39 40 39 37 36 36 36 35 34 35 35 35 36 37 37 38 39 39 40 39 38 38 40 40 40 41 42 42 41 41 44 45 44 45 44 44 44 44 44 43 42 41 41 41 41 41
56 53 56 59 59 57 57 60 63 64 64 66 70 72 72 70 68 68 69 68 66 65 64 61 55 50 46 43 39 37 36 36 36 37 39 41 42 40 39 40 41 40 39 37 37 39 39 37 38 38 38 39 40 41 41 41 42 42 42 41 40 40 41 43 44 45 45 43 42 43 44 45 46 46 47 47 47 47 47 46 45 44 45 45 45
60 55 53 53 54 55 56 59 63 65 64 63 66 72 74 73 71 71 69 66 61 60 61 60 53 46 42 40 38 37 36 35 35 36 38 40 40 38 38 39 41 41 41 40 40 42 42 40 40 41 42 43 43 43 44 44 44 44 44 45 44 43 43 44 45 45 45 45 46 45 45 46 46 46 47 48 48 48 49 49 47 47 47 47 47
62 58 53 50 49 50 53 58 62 64 66 65 65 69 73 75 74 73 71 66 59 55 56 57 52 45 42 41 40 39 38 36 36 37 38 38 37 34 35 36 39 41 42 41 41 44 46 45 45 46 46 46 46 45 45 46 46 45 45 46 47 47 46 45 46 46 45 45 46 47 47 47 46 46 48 48 46 46 48 49 49 49 49 48 47
58 57 56 55 54 51 52 56 60 63 65 66 66 70 74 76 75 74 74 72 66 57 53 52 50 46 42 40 38 37 36 36 38 39 38 35 33 32 33 35 35 37 39 39 41 45 49 50 49 48 47 47 47 46 46 46 46 47 47 45 45 47 47 47 47 47 45 44 46 47 46 47 48 49 50 50 49 48 51 52 50 50 51 50 49
55 54 55 56 57 55 54 56 60 64 67 67 68 73 78 80 79 77 76 77 75 68 59 53 50 46 43 40 37 35 34 36 39 39 37 34 32 33 34 35 35 37 38 37 38 42 47 50 50 49 47 47 47 46 46 47 46 47 48 47 46 47 49 48 49 48 45 43 46 48 48 48 49 51 51 51 52 52 53 52 51 51 51 52 51
56 55 53 52 53 53 54 58 61 64 67 67 67 70 76 80 82 82 83 85 85 79 69 60 53 49 46 44 41 37 35 36 37 37 36 35 35 35 37 37 40 45 47 45 43 43 44 46 49 50 49 48 48 47 46 47 47 47 48 48 47 48 48 47 48 49 47 45 47 49 49 50 52 52 51 51 52 53 52 51 51 51 51 51 51
55 54 53 53 53 51 52 58 62 64 66 67 67 70 74 76 79 83 87 88 87 83 77 69 61 55 52 50 47 41 37 35 34 34 34 33 34 36 38 39 42 47 50 50 50 49 46 44 46 49 49 48 49 49 48 48 49 49 50 49 48 48 48 48 48 49 50 50 50 50 50 52 54 53 52 50 50 52 52 52 51 51 50 51 51
57 57 56 55 54 52 53 58 61 64 68 70 71 71 73 75 77 80 83 81 77 76 75 72 68 64 59 54 50 45 41 38 37 36 35 34 34 36 38 39 41 44 47 49 49 50 48 47 47 49 50 50 50 50 51 51 51 52 52 52 50 49 48 48 49 50 51 52 53 53 53 54 54 54 54 53 53 54 55 55 54 53 51 51 51
63 61 59 56 52 51 54 56 59 63 69 74 74 72 71 72 76 80 81 76 71 70 71 71 69 67 63 57 51 48 44 42 41 41 41 40 40 42 43 43 42 41 43 46 47 47 47 47 46 47 47 48 49 50 51 51 50 51 51 51 51 51 50 49 49 50 51 53 55 56 56 56 55 56 58 59 60 60 60 59 58 55 53 51 51
66 64 62 57 53 51 52 53 56 60 66 72 74 74 74 76 78 80 79 74 71 72 73 71 68 65 61 57 52 49 47 45 44 45 45 45 45 46 46 47 46 43 42 44 46 47 49 50 50 49 49 49 49 49 49 50 50 50 51 51 52 53 54 54 55 55 56 56 56 56 57 59 59 60 61 62 63 63 62 59 57 56 55 53 52
66 66 63 59 56 56 56 55 55 58 62 68 70 71 74 77 78 77 76 73 73 73 73 70 67 63 60 57 54 51 51 51 49 48 47 48 49 50 50 51 51 49 47 49 51 54 57 59 59 60 60 60 57 56 56 56 56 57 59 61 61 62 62 63 63 61 60 59 59 60 61 64 65 65 65 65 64 63 60 57 55 55 55 54 52
65 64 63 61 58 57 58 59 60 60 63 66 68 69 74 76 74 72 73 73 72 72 72 70 68 65 61 60 57 56 57 58 56 54 52 51 52 54 56 57 57 57 56 56 58 60 63 66 67 68 69 68 67 66 66 66 65 65 66 68 69 71 72 72 71 69 68 67 65 66 66 67 66 65 64 63 62 59 56 53 52 51 52 51 50
64 63 64 64 61 57 57 59 62 64 66 68 68 69 74 75 73 71 74 74 71 69 70 70 69 67 65 64 63 64 66 67 67 65 62 57 56 58 60 61 61 62 61 60 60 62 65 67 70 72 73 72 71 71 71 71 71 71 72 72 74 77 80 80 78 75 73 70 69 68 68 66 64 61 58 56 55 53 51 49 47 47 47 48 49
65 64 64 65 64 62 61 61 62 64 66 68 67 68 71 72 71 70 73 75 73 70 70 71 71 71 69 67 67 70 74 74 73 72 70 66 61 59 60 60 62 64 63 61 62 64 64 65 69 75 76 75 73 74 74 74 74 74 75 75 75 77 79 81 80 76 74 74 73 72 69 64 60 56 54 53 52 50 49 48 48 48 49 49 51
68 66 65 65 65 65 65 64 64 65 66 66 65 66 68 71 70 69 69 71 72 72 72 74 75 74 72 70 71 75 79 80 77 75 75 72 68 65 63 64 66 69 70 68 67 68 69 71 75 78 77 74 74 74 73 73 73 72 72 72 70 70 72 76 78 79 80 79 75 69 64 60 56 53 52 52 51 50 50 50 52 53 52 52 53
69 67 66 66 65 64 63 63 63 65 68 66 64 64 66 68 70 71 72 72 74 76 78 79 79 78 76 76 77 79 81 81 78 75 73 72 70 69 70 72 75 77 77 78 78 78 79 79 79 77 75 73 72 71 70 71 72 73 73 72 70 70 73 76 77 76 74 71 65 60 57 56 55 53 53 52 51 50 53 54 55 56 56 55 56
70 68 68 67 65 64 67 69 69 68 68 66 65 65 66 66 68 72 73 72 72 75 78 78 79 80 80 80 80 80 79 77 76 74 73 73 75 76 78 80 82 81 79 79 80 81 81 81 79 77 75 74 73 73 73 75 75 75 75 74 73 74 74 72 69 67 64 62 59 57 55 55 55 54 53 54 55 56 58 59 59 59 62 64 64
69 68 68 69 67 67 72 77 75 69 67 66 65 65 67 69 71 73 73 71 72 75 76 76 78 83 85 84 83 82 79 77 76 75 75 78 82 84 83 82 81 79 76 76 77 77 77 78 78 77 75 75 75 76 76 76 74 73 72 71 71 70 66 63 61 61 61 60 58 55 55 57 58 56 55 57 60 62 62 63 63 64 66 67 67
67 68 70 70 69 70 72 74 72 68 67 68 67 67 71 77 79 80 78 76 75 77 77 76 78 82 86 87 87 87 84 81 79 78 78 80 82 82 80 79 78 78 78 78 78 77 76 76 77 77 76 75 75 75 74 72 69 66 65 63 62 60 58 57 57 57 56 55 54 53 52 56 59 59 58 59 63 65 66 66 66 66 67 67 67
67 67 69 69 70 70 71 71 68 67 68 69 71 72 75 77 79 80 79 77 76 76 78 79 80 82 86 88 89 89 87 83 80 80 80 81 82 81 80 80 81 81 81 80 79 78 77 76 75 74 73 71 71 71 70 67 64 60 58 56 56 55 54 54 54 54 53 54 54 54 53 54 58 61 63 64 68 71 71 70 68 67 68 71 75